When you browse on this site, cookies collect data to enhance your experience and personalize the content and advertising you see.
Visit our Privacy Policy to learn more. By continuing to use the site, you agree to this use of cookies and data.
  • In Österreich
  • Länderverzeichnis
  • Für 7 Tage
  • Wassertemperatur
  • Wetterkarte
  • News
  • Widgets
  • user-avatar
    Anmelden

    Stündliche Wetter Dakka

    Heute, 28 Februar, Freitag

    Zeit Temperatur Niederschläge Wind Luftdruck Luftfeuchtigkeit
    00:00 +22°C° 0 mm 1 m/S 759 mmHg 50%
    01:00 +21°C° 0 mm 1 m/S 759 mmHg 51%
    02:00 +21°C° 0 mm 1 m/S 758 mmHg 52%
    03:00 +20°C° 0 mm 2 m/S 758 mmHg 53%
    04:00 +19°C° 0 mm 2 m/S 758 mmHg 54%
    05:00 +19°C° 0 mm 2 m/S 758 mmHg 56%
    06:00 +18°C° 0 mm 0 m/S 759 mmHg 62%
    07:00 +21°C° 0 mm 1 m/S 759 mmHg 58%
    08:00 +23°C° 0 mm 1 m/S 760 mmHg 53%
    09:00 +25°C° 0 mm 2 m/S 760 mmHg 49%
    10:00 +27°C° 0 mm 2 m/S 760 mmHg 44%
    11:00 +28°C° 0 mm 2 m/S 759 mmHg 38%
    12:00 +29°C° 0 mm 1 m/S 759 mmHg 34%
    13:00 +30°C° 0 mm 2 m/S 758 mmHg 32%
    14:00 +30°C° 0 mm 2 m/S 757 mmHg 30%
    15:00 +31°C° 0 mm 2 m/S 756 mmHg 28%
    16:00 +29°C° 0 mm 2 m/S 756 mmHg 31%
    17:00 +28°C° 0 mm 2 m/S 756 mmHg 34%
    18:00 +26°C° 0 mm 2 m/S 757 mmHg 37%
    19:00 +26°C° 0 mm 2 m/S 757 mmHg 37%
    20:00 +25°C° 0 mm 2 m/S 758 mmHg 38%
    21:00 +24°C° 0 mm 2 m/S 758 mmHg 38%
    22:00 +24°C° 0 mm 2 m/S 758 mmHg 40%
    23:00 +23°C° 0 mm 2 m/S 758 mmHg 41%

    Morgen, 29 Februar, Samstag

    Zeit Temperatur Niederschläge Wind Luftdruck Luftfeuchtigkeit
    00:00 +23°C° 0 mm 2 m/S 758 mmHg 42%
    01:00 +21°C° 0 mm 2 m/S 757 mmHg 44%
    02:00 +21°C° 0 mm 2 m/S 757 mmHg 47%
    03:00 +20°C° 0 mm 2 m/S 756 mmHg 49%
    04:00 +20°C° 0 mm 2 m/S 756 mmHg 51%
    05:00 +19°C° 0 mm 2 m/S 756 mmHg 53%
    06:00 +20°C° 0 mm 1 m/S 757 mmHg 55%
    07:00 +21°C° 0 mm 2 m/S 757 mmHg 52%
    08:00 +24°C° 0 mm 2 m/S 758 mmHg 49%
    09:00 +26°C° 0 mm 2 m/S 758 mmHg 46%
    10:00 +27°C° 0 mm 1 m/S 758 mmHg 41%
    11:00 +29°C° 0 mm 1 m/S 758 mmHg 35%
    12:00 +31°C° 0 mm 1 m/S 757 mmHg 30%
    13:00 +32°C° 0 mm 1 m/S 757 mmHg 28%
    14:00 +32°C° 0 mm 1 m/S 756 mmHg 26%
    15:00 +34°C° 0 mm 2 m/S 755 mmHg 24%
    16:00 +31°C° 0 mm 2 m/S 755 mmHg 28%
    17:00 +30°C° 0 mm 2 m/S 755 mmHg 31%
    18:00 +28°C° 0 mm 3 m/S 755 mmHg 35%
    19:00 +27°C° 0 mm 2 m/S 755 mmHg 36%
    20:00 +26°C° 0 mm 2 m/S 756 mmHg 36%
    21:00 +26°C° 0 mm 2 m/S 757 mmHg 36%
    22:00 +25°C° 0 mm 2 m/S 757 mmHg 37%
    23:00 +25°C° 0 mm 2 m/S 757 mmHg 38%

    übermorgen, 1 März, Sonntag

    Zeit Temperatur Niederschläge Wind Luftdruck Luftfeuchtigkeit
    00:00 +24°C° 0 mm 1 m/S 757 mmHg 39%
    01:00 +23°C° 0 mm 1 m/S 757 mmHg 41%
    02:00 +23°C° 0 mm 1 m/S 756 mmHg 44%
    03:00 +22°C° 0 mm 1 m/S 756 mmHg 46%
    04:00 +22°C° 0 mm 1 m/S 756 mmHg 47%
    05:00 +21°C° 0 mm 1 m/S 756 mmHg 48%
    06:00 +21°C° 0 mm 1 m/S 756 mmHg 50%
    07:00 +23°C° 0 mm 1 m/S 757 mmHg 46%
    08:00 +25°C° 0 mm 1 m/S 758 mmHg 42%
    09:00 +27°C° 0 mm 1 m/S 759 mmHg 38%
    10:00 +29°C° 0 mm 1 m/S 758 mmHg 34%
    11:00 +31°C° 0 mm 1 m/S 758 mmHg 31%
    12:00 +32°C° 0 mm 2 m/S 757 mmHg 27%
    13:00 +34°C° 0 mm 2 m/S 756 mmHg 26%
    14:00 +34°C° 0 mm 3 m/S 755 mmHg 25%
    15:00 +35°C° 0 mm 3 m/S 755 mmHg 24%
    16:00 +33°C° 0 mm 3 m/S 755 mmHg 28%
    17:00 +31°C° 0 mm 2 m/S 754 mmHg 31%
    18:00 +29°C° 0 mm 2 m/S 754 mmHg 34%
    19:00 +28°C° 0 mm 2 m/S 755 mmHg 35%
    20:00 +27°C° 0 mm 1 m/S 755 mmHg 36%
    21:00 +27°C° 0 mm 1 m/S 756 mmHg 36%
    22:00 +26°C° 0 mm 1 m/S 756 mmHg 39%
    23:00 +25°C° 0 mm 2 m/S 756 mmHg 42%

    2 März, Montag

    Zeit Temperatur Niederschläge Wind Luftdruck Luftfeuchtigkeit
    00:00 +24°C° 0 mm 2 m/S 756 mmHg 45%
    01:00 +24°C° 0 mm 2 m/S 756 mmHg 48%
    02:00 +23°C° 0 mm 2 m/S 756 mmHg 50%
    03:00 +23°C° 0 mm 1 m/S 755 mmHg 52%
    04:00 +22°C° 0 mm 1 m/S 756 mmHg 54%
    05:00 +22°C° 0 mm 1 m/S 756 mmHg 56%
    06:00 +21°C° 0 mm 1 m/S 756 mmHg 58%
    07:00 +23°C° 0 mm 1 m/S 757 mmHg 53%
    08:00 +25°C° 0 mm 2 m/S 757 mmHg 49%
    09:00 +27°C° 0 mm 2 m/S 758 mmHg 44%
    10:00 +29°C° 0 mm 2 m/S 758 mmHg 39%
    11:00 +31°C° 0 mm 2 m/S 757 mmHg 34%
    12:00 +34°C° 0 mm 2 m/S 757 mmHg 29%
    13:00 +35°C° 0 mm 2 m/S 756 mmHg 27%
    14:00 +35°C° 0 mm 2 m/S 755 mmHg 24%
    15:00 +36°C° 0 mm 2 m/S 754 mmHg 22%
    16:00 +34°C° 0 mm 2 m/S 754 mmHg 25%
    17:00 +32°C° 0 mm 1 m/S 754 mmHg 28%
    18:00 +30°C° 0 mm 1 m/S 753 mmHg 31%
    19:00 +29°C° 0.1 mm 1 m/S 754 mmHg 36%
    20:00 +28°C° 0.1 mm 1 m/S 755 mmHg 40%
    21:00 +27°C° 0.1 mm 1 m/S 755 mmHg 44%
    22:00 +27°C° 0 mm 2 m/S 755 mmHg 47%
    23:00 +26°C° 0 mm 3 m/S 755 mmHg 50%

    3 März, Dienstag

    Zeit Temperatur Niederschläge Wind Luftdruck Luftfeuchtigkeit
    00:00 +25°C° 0 mm 3 m/S 755 mmHg 53%
    01:00 +25°C° 0 mm 3 m/S 755 mmHg 55%
    02:00 +24°C° 0 mm 2 m/S 755 mmHg 58%
    03:00 +23°C° 0 mm 2 m/S 755 mmHg 60%
    04:00 +23°C° 0 mm 2 m/S 755 mmHg 62%
    05:00 +23°C° 0 mm 1 m/S 755 mmHg 63%
    06:00 +22°C° 0 mm 1 m/S 755 mmHg 64%
    07:00 +24°C° 0.1 mm 1 m/S 756 mmHg 59%
    08:00 +26°C° 0.1 mm 1 m/S 757 mmHg 55%
    09:00 +27°C° 0.1 mm 1 m/S 757 mmHg 50%
    10:00 +29°C° 0 mm 1 m/S 757 mmHg 45%
    11:00 +31°C° 0 mm 2 m/S 757 mmHg 39%
    12:00 +34°C° 0 mm 2 m/S 756 mmHg 34%
    13:00 +35°C° 0 mm 3 m/S 755 mmHg 32%
    14:00 +35°C° 0 mm 3 m/S 754 mmHg 29%
    15:00 +36°C° 0 mm 3 m/S 753 mmHg 27%
    16:00 +35°C° 0 mm 3 m/S 753 mmHg 32%
    17:00 +33°C° 0 mm 3 m/S 753 mmHg 37%
    18:00 +30°C° 0 mm 2 m/S 753 mmHg 42%
    19:00 +29°C° 0 mm 3 m/S 753 mmHg 45%
    20:00 +29°C° 0 mm 4 m/S 754 mmHg 48%
    21:00 +28°C° 0 mm 5 m/S 754 mmHg 52%
    22:00 +27°C° 0 mm 4 m/S 755 mmHg 54%
    23:00 +27°C° 0 mm 3 m/S 755 mmHg 55%

    4 März, Mittwoch

    Zeit Temperatur Niederschläge Wind Luftdruck Luftfeuchtigkeit
    00:00 +26°C° 0 mm 2 m/S 755 mmHg 57%
    01:00 +25°C° 0.2 mm 2 m/S 754 mmHg 60%
    02:00 +25°C° 0.2 mm 2 m/S 754 mmHg 63%
    03:00 +24°C° 0.2 mm 1 m/S 754 mmHg 66%
    04:00 +23°C° 0.6 mm 2 m/S 754 mmHg 70%
    05:00 +23°C° 0.6 mm 2 m/S 755 mmHg 74%
    06:00 +21°C° 0.6 mm 2 m/S 755 mmHg 78%
    07:00 +24°C° 0.1 mm 3 m/S 756 mmHg 73%
    08:00 +26°C° 0.1 mm 3 m/S 756 mmHg 68%
    09:00 +27°C° 0.1 mm 3 m/S 757 mmHg 63%
    10:00 +29°C° 0 mm 4 m/S 757 mmHg 56%
    11:00 +32°C° 0 mm 4 m/S 756 mmHg 49%
    12:00 +34°C° 0 mm 4 m/S 756 mmHg 42%
    13:00 +34°C° 0.5 mm 5 m/S 755 mmHg 44%
    14:00 +33°C° 0.5 mm 6 m/S 754 mmHg 45%
    15:00 +33°C° 0.5 mm 7 m/S 753 mmHg 47%
    16:00 +30°C° 1 mm 6 m/S 753 mmHg 52%
    17:00 +27°C° 1 mm 5 m/S 753 mmHg 58%
    18:00 +25°C° 1 mm 4 m/S 753 mmHg 64%
    19:00 +23°C° 0.3 mm 4 m/S 754 mmHg 65%
    20:00 +24°C° 0.3 mm 3 m/S 755 mmHg 66%
    21:00 +24°C° 0.3 mm 3 m/S 756 mmHg 67%
    22:00 +24°C° 0 mm 3 m/S 756 mmHg 68%
    23:00 +24°C° 0 mm 2 m/S 756 mmHg 69%
    Mehr zeigen